Home > Weather > San Marino > Past weeks

Flag for San Marino Past Weather in San Marino, San Marino — Yesterday and Last 2 Weeks

Now
82 °F

Passing clouds.


Feels Like: 89 °F
Forecast: 61 / 80 °F
Wind: 7 mph from Northeast

Location: Rimini Airport

Current Time: Jul 29, 2016 at 4:08:51 PM

Latest Report: Jul 29, 2016 at 3:15 PM


Visibility: N/A

Pressure: 29.95 "Hg (27.77 "Hg at 666m altitude)

Humidity: 79%

Dew Point: 75 °F

Location of San MarinoLocation

Past Weather in San Marino — Graph

°F

San Marino Temperature Yesterday

Maximum temperature yesterday: 81 °F (at 9:45 AM)
Minimum temperature yesterday: 70 °F (at 3:15 AM)
Average temperature yesterday: 77 °F

High & Low Weather Summary for the Past Weeks

 TemperatureHumidityPressure
High86 °F (Jul 20, 6:15 PM)100% (Jul 15, 4:15 AM)30.09 "Hg (Jul 15, 4:15 AM)
Low61 °F (Jul 17, 6:15 AM)45% (Jul 17, 11:15 AM)29.83 "Hg (Jul 15, 2:45 AM)
Average77 °F80%29.98 "Hg
* Reported Jul 14 2:15 PM — Jul 29 2:15 PM, San Marino, Weather by CustomWeather, © 2016

Note: Actual official high and low records may vary slightly from our data, if they occured in-between our weather recording intervals... More about our weather records

Advertising

San Marino Weather History for the Previous 24 Hours

Scroll right to see more
 ConditionsComfort  
Time TempWeatherWind HumidityBarometerVisibility
2:15 PM
Fri, Jul 29
82 °FPassing clouds.9 mph84%29.95 "HgN/A
1:45 PM82 °FPassing clouds.9 mph84%29.95 "HgN/A
1:15 PM82 °FPassing clouds.9 mph84%29.95 "HgN/A
12:45 PM82 °FPassing clouds.7 mph84%29.95 "HgN/A
12:15 PM82 °FSunny.8 mph84%29.95 "Hg10 mi
11:45 AM82 °FSunny.8 mph84%29.95 "Hg10 mi
11:15 AM82 °FSunny.7 mph79%29.95 "Hg10 mi
10:45 AM82 °FSunny.7 mph79%29.95 "Hg10 mi
10:15 AM82 °FSunny.7 mph79%29.95 "Hg10 mi
9:45 AM82 °FSunny.No wind74%29.95 "Hg10 mi
9:15 AM81 °FSunny.No wind79%29.95 "Hg10 mi
8:45 AM79 °FSunny.2 mph84%29.95 "Hg10 mi
8:15 AM77 °FSunny.No wind89%29.95 "Hg10 mi
7:45 AM73 °FSunny.No wind94%29.95 "Hg10 mi
7:15 AM73 °FSunny.No wind94%29.95 "Hg10 mi
6:45 AM70 °FClear.2 mph94%29.95 "Hg10 mi
6:15 AM70 °FClear.2 mph100%29.95 "Hg10 mi
5:45 AM72 °FClear.No wind94%29.95 "Hg10 mi
5:15 AM72 °FClear.2 mph94%29.95 "Hg10 mi
4:45 AM72 °FClear.2 mph94%29.95 "Hg10 mi
4:15 AM72 °FClear.2 mph94%29.95 "Hg10 mi
3:45 AM72 °FClear.2 mph100%29.95 "Hg10 mi
3:15 AM72 °FClear.2 mph100%29.95 "Hg10 mi
2:45 AM72 °FClear.No wind100%29.92 "Hg10 mi
2:15 AM72 °FClear.2 mph100%29.92 "Hg10 mi
1:15 AM75 °FClear.No wind94%29.95 "Hg10 mi
12:45 AM75 °FClear.No wind94%29.95 "Hg10 mi
12:15 AM75 °FClear.No wind94%29.95 "Hg10 mi
11:45 PM
Thu, Jul 28
75 °FClear.No wind94%29.95 "Hg10 mi
11:15 PM75 °FClear.No wind94%29.95 "Hg10 mi
10:45 PM77 °FClear.No wind94%29.95 "Hg10 mi
10:15 PM77 °FClear.3 mph94%29.95 "Hg10 mi
9:45 PM77 °FClear.2 mph94%29.95 "Hg10 mi
9:15 PM77 °FSunny.3 mph94%29.95 "Hg10 mi
7:15 PM79 °FPassing clouds.5 mph84%29.95 "HgN/A
6:15 PM81 °FPassing clouds.1 mph79%29.95 "HgN/A
5:45 PM81 °FPassing clouds.5 mph79%29.95 "HgN/A
5:15 PM81 °FPassing clouds.8 mph79%29.95 "HgN/A
4:45 PM81 °FPassing clouds.9 mph79%29.95 "HgN/A
4:15 PM81 °FPassing clouds.10 mph79%29.95 "HgN/A
Weather by CustomWeather, © 2016

See weather overviewHow to use our weather pages